Location: Unspecified
(0.0000°N, 0.0000°E)
Time: 20:57:34
(UTC+00:00)

STARLINK-11600 [DTC] - Visible Passes

Search period start: 09 June 2026 00:00
Search period end: 19 June 2026 00:00
Orbit: 355 x 358 km, 43.0° (Epoch: 8 June)

Date Brightness Start Highest point End Pass type
(mag) Time Alt. Az. Time Alt. Az. Time Alt. Az.
12 Jun ? 19:32:16 10° NNW 19:33:27 18° N 19:33:27 18° N visible
13 Jun ? 19:57:52 10° WNW 19:58:34 15° WNW 19:58:34 15° WNW visible
14 Jun ? 18:47:40 10° NNW 18:50:22 36° NE 18:51:53 20° ESE visible
15 Jun ? 19:13:04 10° WNW 19:15:36 27° SW 19:16:29 23° SSW visible
17 Jun ? 05:26:49 10° SSW 05:29:20 25° SE 05:31:50 10° ENE visible
17 Jun ? 18:27:11 10° W 18:29:25 20° SW 18:31:39 10° S visible
